Regional Weather Roundup
Issued by NWS Cleveland, OH

Home | Current Version | Previous Version | Graphics & Text | Print | Product List | Glossary On
Versions: 1 2 3 4 5 6 7 8 9 10 11 12 13 14 15 16 17 18 19 20 21 22 23 24 25 26 27 28 29 30 31 32 33 34 35 36 37 38 39 40 41 42 43 44 45 46 47 48 49 50
000
ASUS41 KCLE 290302
RWRCLE
OHIO REGIONAL WEATHER ROUNDUP
NATIONAL WEATHER SERVICE CLEVELAND, OH
1100 PM EDT THU AUG 28 2014

NOTE: "FAIR" INDICATES FEW OR NO CLOUDS BELOW 12,000 FEET WITH NO
SIGNIFICANT WEATHER AND/OR OBSTRUCTIONS TO VISIBILITY.

OHZ001>008-015>018-024>027-034-035-043-044-290400-
   NORTHWEST OHIO

CITY           SKY/WX    TMP DP  RH WIND       PRES   REMARKS
DEFIANCE       CLEAR     65  56  72 E7        30.12S
FINDLAY        CLEAR     64  56  75 E10       30.13R
TOLEDO EXPRESS CLEAR     62  56  80 CALM      30.13S
TOLEDO EXEC    PTCLDY    60  54  80 SE6       30.14S
LIMA           CLEAR     64  58  80 E9        30.13R
$$

OHZ009>014-019>023-028>033-038-089-290400-
   NORTHEAST OHIO

CITY           SKY/WX    TMP DP  RH WIND       PRES   REMARKS
CLE-HOPKINS    MOCLDY    59  52  77 S6        30.17S
CLE-LAKEFRONT  PTCLDY    65  49  56 SE3       30.15R
CUY CO. ARPT   PTCLDY    57  54  88 SE5       30.17R
LORAIN-ELYRIA  PTCLDY    57  52  83 CALM      30.16F
ASHTABULA      CLEAR     52  50  93 CALM      30.17S
AKRON-CANTON   PTCLDY    60  50  69 CALM      30.17R
WOOSTER        PTCLDY    54  50  86 CALM      30.17R
MANSFIELD      PTCLDY    58  53  84 E3        30.16S
YOUNGSTOWN     PTCLDY    55  51  86 NE3       30.16R
$$

OHZ042-051>053-060>062-070>072-077>081-290400-
  SOUTHWEST OHIO

CITY           SKY/WX    TMP DP  RH WIND       PRES   REMARKS
CINC-COVINGTON PTCLDY    74  60  61 E10       30.09R
CINC-LUNKEN    CLEAR     72  62  71 NE5       30.09R
HAMILTON       CLEAR     70  62  76 E6        30.10R
DAYTON         CLEAR     70  60  70 E8        30.12R
WRIGHT-PAT AFB CLEAR     69  61  76 NE5       30.11S
DAYTON GENERAL CLEAR     69  62  78 E6        30.10R
WILMINGTON     CLEAR     66  60  81 E6        30.11S
$$

OHZ036-037-039>041-045>050-054>059-063>069-073>076-082>088-290400-
  CENTRAL AND SOUTHEAST OHIO

CITY           SKY/WX    TMP DP  RH WIND       PRES   REMARKS
COLUMBUS       CLEAR     68  57  68 E3        30.12S
OSU AIRPORT    CLEAR     66  59  78 CALM      30.13R
BOLTON FIELD   CLEAR     67  59  75 NE3       30.13S
RICKENBACK AFB CLEAR     66  56  71 E3        30.12R
NEWARK         CLEAR     62  58  86 N3        30.14R
MARION         CLEAR     60  55  83 E5        30.14S
LANCASTER      CLEAR     62  59  90 CALM      30.13S
ZANESVILLE     CLEAR     60  57  89 CALM      30.14R
NEW PHILLY     PTCLDY    57  55  93 CALM      30.17R
$$


USA.gov is the U.S. government's official web portal to all federal, state and local government web resources and services.